Nadi, Fiji

8:24 AM +13 on November 25, 2017 (GMT +1300)
Nadi International

Weather History for NFFN - February, 2013

Change the Weather History Date:

Tuesday, February 19, 2013

  Actual Average Record
Temperature  
Mean Temperature 80 °F -  
Max Temperature 87 °F 86 °F 93 °F (2001)
Min Temperature 73 °F 73 °F 73 °F (1998)
Cooling Degree Days 15    
Growing Degree Days 30 (Base 50)    
Moisture  
Dew Point 75 °F    
Average Humidity 89    
Maximum Humidity 100    
Minimum Humidity 61    
Precipitation  
Precipitation 0.43 in 0.42 in - ()
Sea Level Pressure  
Sea Level Pressure 29.78 in    
Wind  
Wind Speed 5 mph ()    
Max Wind Speed 13 mph    
Max Gust Speed -    
Visibility 7.1 miles    
Events Rain    
Averages and records for this station are not official NWS values.
T = Trace of Precipitation, MM = Missing Value Source: Averaged Metar Reports

Daily Weather History Graph

Daily Weather History Graph

Search for Another Location

Airport or City:

Trip Planner

Search our weather history database for the weather conditions in past years. The results will help you decide how hot, cold, wet, or windy it might be!

Date:

Astronomy

Feb. 19, 2013 Rise Set
Actual Time 6:05 AM +12 6:42 PM +12
Civil Twilight 5:43 AM +12 7:04 PM +12
Nautical Twilight 5:17 AM +12 7:30 PM +12
Astronomical Twilight 4:50 AM +12 7:56 PM +12
Moon 1:31 PM +12 (2/19) 12:10 AM +12 (2/19)
Length of Visible Light 13h 20m
Length of Day
12h 36m
First Quarter, 61% of the Moon is Illuminated
Feb 19
First Quarter
Feb 26
Full
Mar 5
Last Quarter
Mar 12
New
Mar 20
First Quarter

Hourly Weather History & Observations

Time (+12) Temp. Heat Index Dew Point Humidity Pressure Visibility Wind Dir Wind Speed Gust Speed Precip Events Conditions
12:00 AM 74 °F - 73 °F 97% 29.83 in 12 mi NE 2.3 mph - -   Partly Cloudy
12:00 AM 73.4 °F - 73.4 °F 100% 29.83 in 6.2 mi NE 2.3 mph - N/A   Mostly Cloudy
1:00 AM 75.2 °F - 73.4 °F 94% 29.80 in 6.2 mi SW 4.6 mph - N/A   Mostly Cloudy
2:00 AM 75.2 °F - 73.4 °F 94% 29.80 in 6.2 mi SSE 8.1 mph - N/A   Mostly Cloudy
3:00 AM 74 °F - 74 °F 100% 29.80 in 12 mi ESE 5.8 mph - -   Partly Cloudy
3:00 AM 75.2 °F - 73.4 °F 94% 29.80 in 6.2 mi ESE 5.8 mph - N/A   Mostly Cloudy
4:00 AM 75.2 °F - 73.4 °F 94% 29.77 in 6.2 mi ESE 5.8 mph - N/A   Mostly Cloudy
5:00 AM 75.2 °F - 73.4 °F 94% 29.77 in 6.2 mi East 4.6 mph - N/A   Mostly Cloudy
6:00 AM 75 °F - 74 °F 95% 29.81 in 31 mi Calm Calm - -   Partly Cloudy
6:00 AM 75.2 °F - 73.4 °F 94% 29.80 in 6.2 mi Calm Calm - N/A   Mostly Cloudy
7:00 AM 75.2 °F - 75.2 °F 100% 29.80 in 6.2 mi Calm Calm - N/A   Mostly Cloudy
8:00 AM 78.8 °F - 75.2 °F 89% 29.80 in 6.2 mi ESE 5.8 mph - N/A   Scattered Clouds
9:00 AM 82 °F - 75 °F 75% 29.83 in 31 mi SW 5.8 mph - -   Partly Cloudy
9:00 AM 82.4 °F 89.5 °F 75.2 °F 79% 29.83 in 6.2 mi SW 5.8 mph - N/A   Mostly Cloudy
10:00 AM 82.4 °F 89.5 °F 75.2 °F 79% 29.80 in 6.2 mi WNW 8.1 mph - N/A   Mostly Cloudy
11:00 AM 86.0 °F 95.1 °F 75.2 °F 70% 29.80 in 6.2 mi WSW 9.2 mph - N/A   Scattered Clouds
12:00 PM 86 °F - 74 °F 61% 29.79 in 31 mi West 12.7 mph - -   Partly Cloudy
12:00 PM 86.0 °F 95.1 °F 75.2 °F 70% 29.77 in 6.2 mi West 12.7 mph - N/A   Mostly Cloudy
1:00 PM 87.8 °F 99.7 °F 77.0 °F 70% 29.74 in 6.2 mi WNW 11.5 mph - N/A   Scattered Clouds
2:00 PM 84.2 °F 92.3 °F 75.2 °F 74% 29.74 in 6.2 mi NW 11.5 mph - N/A   Scattered Clouds
3:00 PM 84.2 °F 94.1 °F 77.0 °F 79% 29.74 in 6.2 mi ESE 11.5 mph - N/A   Mostly Cloudy
3:25 PM 84.2 °F 94.1 °F 77.0 °F 79% 29.74 in 1.9 mi ESE 11.5 mph - N/A Rain Rain Showers
4:00 PM 75.2 °F - 75.2 °F 100% 29.74 in 5.0 mi SE 11.5 mph - N/A Rain Rain Showers
5:00 PM 75.2 °F - 73.4 °F 94% 29.74 in 6.2 mi East 11.5 mph - N/A Rain Rain Showers
6:00 PM 76 °F - 75 °F 97% 29.77 in 6 mi ESE 5.8 mph - -   Partly Cloudy
6:00 PM 75.2 °F - 75.2 °F 100% 29.74 in 6.2 mi ESE 5.8 mph - N/A   Mostly Cloudy
7:00 PM 77.0 °F - 75.2 °F 94% 29.77 in 18.6 mi Calm Calm - N/A   Mostly Cloudy
8:00 PM 75.2 °F - 75.2 °F 100% 29.77 in 24.9 mi Calm Calm - N/A   Mostly Cloudy
9:00 PM 76 °F - 75 °F 96% 29.80 in 12 mi East 4.6 mph - -   Partly Cloudy
9:00 PM 75.2 °F - 75.2 °F 100% 29.80 in 24.9 mi East 4.6 mph - N/A   Mostly Cloudy
10:00 PM 75.2 °F - 75.2 °F 100% 29.80 in 6.2 mi Calm Calm - N/A   Mostly Cloudy
11:00 PM 75.2 °F - 75.2 °F 100% 29.80 in 6.2 mi Calm Calm - N/A   Mostly Cloudy